Location: *
(50.9167°S, 179.4000°W)
Time: 19:37:22
(UTC+00:00)

COSMOS 2428 - Pass Details

Date: 24 June 2024
Orbit: 843 x 857 km, 70.9° (Epoch: 17 July)

Event Time Altitude Azimuth Distance (km) Brightness Sun altitude
Exits shadow 18:11:29 - 199° (SSW) 2,787 5.1 -16.2°
Reaches altitude 10° 18:12:36 10° 190° (S) 2,523 4.9 -16.1°
Maximum altitude 18:16:09 16° 152° (SSE) 2,104 4.9 -15.5°
Drops below altitude 10° 18:19:40 10° 114° (ESE) 2,509 5.8 -15.0°
Sets 18:23:09 0° 93° (E) 3,436 7.2 -14.5°
